N1DJS Weather Reports


time (UTC)temp
C
wind
direction
speed
KPH
gust
KPH
rain 1hr
cm
rain 24hr
cm
rain mn
cm
humidity
%
barometer
mb
20260505041509 18 182 0.0 0.0 0.00 0.00 0.00 66 1002.8
20260505040018 18 232 0.0 0.0 0.00 0.00 0.00 65 1002.8
20260505034507 18 240 0.0 0.0 0.00 0.00 0.00 66 1002.8
20260505033012 18 202 0.0 0.0 0.00 0.00 0.00 66 1002.7
20260505031506 18 162 0.0 0.0 0.00 0.00 0.00 66 1002.6
20260505030013 18 235 0.0 0.0 0.00 0.00 0.00 66 1002.5
20260505024505 18 245 0.0 0.0 0.00 0.00 0.00 65 1002.5
20260505023104 19 175 0.0 0.0 0.00 0.00 0.00 65 1002.2
20260505021504 19 175 0.0 0.0 0.00 0.00 0.00 64 1002.1
20260505020007 20 171 0.0 0.0 0.00 0.00 0.00 63 1002.0
20260505014503 20 162 0.0 0.0 0.00 0.00 0.00 62 1001.9
20260505013001 20 169 0.0 0.0 0.00 0.00 0.00 61 1001.7
20260505011619 20 188 0.0 1.6 0.00 0.00 0.00 61 1001.6
20260505010108 21 169 0.0 0.0 0.00 0.00 0.00 60 1001.7
20260505004601 21 205 0.0 0.0 0.00 0.00 0.00 58 1001.7
20260505003058 21 232 0.0 0.0 0.00 0.00 0.00 57 1001.8
20260505001557 22 233 0.0 1.6 0.00 0.00 0.00 56 1001.8
20260505000106 22 230 0.0 0.0 0.00 0.00 0.00 55 1001.9
20260504234605 22 204 0.0 1.6 0.00 0.00 0.00 54 1001.9
20260504233055 23 269 0.0 0.0 0.00 0.00 0.00 53 1002.1
20260504231552 23 238 0.0 1.6 0.00 0.00 0.00 52 1002.1
20260504230054 23 255 0.0 17.7 0.00 0.00 0.00 52 1002.3
20260504224553 23 221 0.0 9.7 0.00 0.00 0.00 54 1002.3
20260504223047 23 248 0.0 0.0 0.00 0.00 0.00 54 1002.5
20260504221548 23 207 0.0 3.2 0.00 0.00 0.00 53 1002.5
20260504220052 24 222 0.0 1.6 0.00 0.00 0.00 53 1002.5
20260504214542 23 234 0.0 1.6 0.00 0.00 0.00 55 1003.0
20260504213058 23 255 0.0 1.6 0.00 0.00 0.00 54 1003.0
20260504211543 23 226 0.0 4.8 0.00 0.00 0.00 55 1003.0
20260504210033 23 240 0.0 1.6 0.00 0.00 0.00 56 1003.2
20260504204539 23 275 0.0 6.4 0.00 0.00 0.00 56 1003.4
20260504203029 22 242 0.0 6.4 0.00 0.00 0.00 56 1003.6
20260504201527 22 224 0.0 6.4 0.00 0.00 0.00 56 1003.9
20260504200023 22 242 0.0 3.2 0.00 0.00 0.00 58 1004.1
20260504194521 22 265 0.0 8.0 0.00 0.00 0.00 60 1004.4
20260504193017 21 286 1.6 24.1 0.00 0.00 0.00 63 1004.6
20260504191516 21 176 0.0 3.2 0.00 0.00 0.00 62 1004.7
20260504190014 20 196 0.0 4.8 0.00 0.00 0.00 65 1004.9
20260504184510 20 258 0.0 11.3 0.00 0.00 0.00 65 1004.7
20260504183007 20 284 0.0 19.3 0.00 0.00 0.00 65 1004.6
20260504181505 19 205 0.0 19.3 0.00 0.00 0.00 65 1004.7
20260504180005 18 216 0.0 1.6 0.00 0.00 0.00 66 1004.9
20260504174506 18 189 0.0 3.2 0.00 0.00 0.00 64 1004.6
20260504173002 19 179 0.0 8.0 0.00 0.00 0.00 67 1004.3
20260504171506 18 258 0.0 4.8 0.00 0.00 0.00 68 1004.8
20260504100114 10 174 0.0 0.0 0.00 0.00 0.00 70 1006.6
20260504081543 10 178 0.0 1.6 0.00 0.00 0.00 69 1007.5
20260504050023 10 212 0.0 0.0 0.00 0.00 0.00 69 1009.3
20260504044532 10 212 0.0 0.0 0.00 0.00 0.00 69 1009.4
20260504043027 10 212 0.0 0.0 0.00 0.00 0.00 69 1009.4